Time,TemperatureF,DewpointF,PressureIn,WindDirection,WindDirectionDegrees,WindSpeedMPH,WindSpeedGustMPH,Humidity,HourlyPrecipIn,Conditions,Clouds,dailyrainin,SolarRadiationWatts/m^2,SoftwareType,DateUTC
2013-07-05 00:02:00,64.9,64.9,30.13,ESE,117,0.0,1.0,100,0.00,,,2.86,0.0,meteohub,2013-07-05 04:02:00,
2013-07-05 00:06:00,64.9,64.9,30.13,ESE,117,0.0,0.0,100,0.00,,,0.00,0.0,meteohub,2013-07-05 04:06:00,
2013-07-05 00:09:00,64.9,64.9,30.13,ESE,117,0.0,0.0,100,0.00,,,0.00,0.0,meteohub,2013-07-05 04:09:00,
2013-07-05 00:15:00,64.8,64.8,30.12,ESE,117,0.0,1.0,100,0.00,,,0.00,0.0,meteohub,2013-07-05 04:15:00,
2013-07-05 00:18:00,64.8,64.8,30.13,ESE,117,0.0,1.0,100,0.00,,,0.00,0.0,meteohub,2013-07-05 04:18:00,
2013-07-05 00:24:00,64.9,64.9,30.13,ESE,117,0.0,1.0,100,0.00,,,0.00,0.0,meteohub,2013-07-05 04:24:00,
2013-07-05 00:30:00,64.9,64.9,30.13,ESE,117,0.0,2.0,100,0.03,,,0.03,0.0,meteohub,2013-07-05 04:30:00,
2013-07-05 00:36:00,64.9,64.9,30.13,ESE,117,0.0,2.0,100,0.03,,,0.03,0.0,meteohub,2013-07-05 04:36:00,
2013-07-05 00:42:00,64.8,64.8,30.13,ESE,103,2.0,2.0,100,0.03,,,0.03,0.0,meteohub,2013-07-05 04:42:00,
2013-07-05 00:47:00,64.8,64.8,30.13,ENE,74,0.0,4.0,100,0.03,,,0.03,0.0,meteohub,2013-07-05 04:47:00,
2013-07-05 00:52:00,64.8,64.8,30.12,ENE,75,0.0,4.0,100,0.03,,,0.03,0.0,meteohub,2013-07-05 04:52:00,
2013-07-05 00:57:00,64.8,64.8,30.13,South,179,1.0,2.0,100,0.03,,,0.03,0.0,meteohub,2013-07-05 04:57:00,
2013-07-05 01:02:00,64.8,64.8,30.12,ESE,121,0.0,2.0,100,0.03,,,0.03,0.0,meteohub,2013-07-05 05:02:00,
2013-07-05 01:07:00,64.9,64.9,30.12,ESE,121,0.0,2.0,100,0.03,,,0.03,0.0,meteohub,2013-07-05 05:07:00,
2013-07-05 01:12:00,64.9,64.9,30.12,ESE,119,0.0,2.0,100,0.03,,,0.03,0.0,meteohub,2013-07-05 05:12:00,
2013-07-05 01:17:00,64.9,64.9,30.12,ESE,119,0.0,1.0,100,0.03,,,0.03,0.0,meteohub,2013-07-05 05:17:00,
2013-07-05 01:22:00,64.8,64.8,30.12,ESE,119,0.0,1.0,100,0.03,,,0.03,0.0,meteohub,2013-07-05 05:22:00,
2013-07-05 01:27:00,64.9,64.9,30.12,ESE,119,0.0,2.0,100,0.00,,,0.03,0.0,meteohub,2013-07-05 05:27:00,
2013-07-05 01:32:00,64.9,64.9,30.12,SSE,156,1.0,2.0,100,0.00,,,0.03,0.0,meteohub,2013-07-05 05:32:00,
2013-07-05 01:37:00,64.9,64.9,30.12,SSE,155,0.0,2.0,100,0.00,,,0.03,0.0,meteohub,2013-07-05 05:37:00,
2013-07-05 01:42:00,64.9,64.9,30.12,SSE,159,0.0,2.0,100,0.00,,,0.03,0.0,meteohub,2013-07-05 05:42:00,
2013-07-05 01:47:00,64.9,64.9,30.12,SSE,159,0.0,2.0,100,0.00,,,0.03,0.0,meteohub,2013-07-05 05:47:00,
2013-07-05 01:52:00,64.9,64.9,30.12,SSE,159,0.0,2.0,100,0.00,,,0.03,0.0,meteohub,2013-07-05 05:52:00,
2013-07-05 01:57:00,64.9,64.9,30.12,SSE,159,0.0,2.0,100,0.00,,,0.03,0.0,meteohub,2013-07-05 05:57:00,
2013-07-05 02:02:00,64.9,64.9,30.12,SSE,159,1.0,2.0,100,0.00,,,0.03,0.0,meteohub,2013-07-05 06:02:00,
2013-07-05 02:07:00,64.9,64.9,30.12,SSE,150,0.0,2.0,100,0.00,,,0.03,0.0,meteohub,2013-07-05 06:07:00,
2013-07-05 02:12:00,64.9,64.9,30.12,SSE,150,0.0,1.0,100,0.00,,,0.03,0.0,meteohub,2013-07-05 06:12:00,
2013-07-05 02:17:00,64.9,64.9,30.12,SE,134,0.0,2.0,100,0.00,,,0.03,0.0,meteohub,2013-07-05 06:17:00,
2013-07-05 02:22:00,64.9,64.9,30.11,ESE,107,0.0,2.0,100,0.00,,,0.03,0.0,meteohub,2013-07-05 06:22:00,
2013-07-05 02:27:00,64.9,64.9,30.11,SE,145,1.0,2.0,100,0.00,,,0.03,0.0,meteohub,2013-07-05 06:27:00,
2013-07-05 02:32:00,64.8,64.8,30.11,SE,144,0.0,2.0,100,0.00,,,0.03,0.0,meteohub,2013-07-05 06:32:00,
2013-07-05 02:37:00,64.8,64.8,30.11,SE,130,0.0,2.0,100,0.00,,,0.03,0.0,meteohub,2013-07-05 06:37:00,
2013-07-05 02:42:00,64.8,64.8,30.11,SSE,153,0.0,2.0,100,0.00,,,0.03,0.0,meteohub,2013-07-05 06:42:00,
2013-07-05 02:47:00,64.8,64.8,30.11,East,101,0.0,4.0,100,0.00,,,0.03,0.0,meteohub,2013-07-05 06:47:00,
2013-07-05 02:52:00,64.8,64.8,30.10,SSE,148,0.0,4.0,100,0.00,,,0.03,0.0,meteohub,2013-07-05 06:52:00,
2013-07-05 02:57:00,64.6,64.6,30.10,SSE,157,1.0,2.0,100,0.00,,,0.03,0.0,meteohub,2013-07-05 06:57:00,
2013-07-05 03:02:00,64.6,64.6,30.10,ESE,119,0.0,2.0,100,0.00,,,0.03,0.0,meteohub,2013-07-05 07:02:00,
2013-07-05 03:07:00,64.6,64.6,30.10,ESE,119,1.0,2.0,100,0.00,,,0.03,0.0,meteohub,2013-07-05 07:07:00,
2013-07-05 03:12:00,64.6,64.6,30.10,ESE,119,1.0,2.0,100,0.00,,,0.03,0.0,meteohub,2013-07-05 07:12:00,
2013-07-05 03:17:00,64.6,64.6,30.10,SSE,157,1.0,2.0,100,0.00,,,0.03,0.0,meteohub,2013-07-05 07:17:00,
2013-07-05 03:22:00,64.6,64.6,30.10,SE,126,0.0,2.0,100,0.00,,,0.03,0.0,meteohub,2013-07-05 07:22:00,
2013-07-05 03:27:00,64.4,64.4,30.10,ESE,117,0.0,3.0,100,0.00,,,0.03,0.0,meteohub,2013-07-05 07:27:00,
2013-07-05 03:32:00,64.4,64.4,30.10,ESE,117,0.0,3.0,100,0.00,,,0.03,0.0,meteohub,2013-07-05 07:32:00,
2013-07-05 03:37:00,64.4,64.4,30.10,SSE,162,0.0,2.0,100,0.01,,,0.04,0.0,meteohub,2013-07-05 07:37:00,
2013-07-05 03:42:00,64.6,64.6,30.10,SSE,162,0.0,2.0,100,0.01,,,0.04,0.0,meteohub,2013-07-05 07:42:00,
2013-07-05 03:47:00,64.4,64.4,30.10,ESE,120,0.0,2.0,100,0.01,,,0.04,0.0,meteohub,2013-07-05 07:47:00,
2013-07-05 03:52:00,64.4,64.4,30.10,East,90,0.0,2.0,100,0.01,,,0.04,0.0,meteohub,2013-07-05 07:52:00,
2013-07-05 03:57:00,64.4,64.4,30.10,East,90,0.0,2.0,100,0.01,,,0.04,0.0,meteohub,2013-07-05 07:57:00,
2013-07-05 04:02:00,64.4,64.4,30.10,ESE,123,0.0,2.0,100,0.01,,,0.04,0.0,meteohub,2013-07-05 08:02:00,
2013-07-05 04:07:00,64.4,64.4,30.10,ESE,123,0.0,2.0,100,0.01,,,0.04,0.0,meteohub,2013-07-05 08:07:00,
2013-07-05 04:12:00,64.4,64.4,30.10,ESE,123,1.0,2.0,100,0.01,,,0.04,0.0,meteohub,2013-07-05 08:12:00,
2013-07-05 04:17:00,64.4,64.4,30.10,ESE,123,0.0,2.0,100,0.01,,,0.04,0.0,meteohub,2013-07-05 08:17:00,
2013-07-05 04:22:00,64.4,64.4,30.10,ESE,123,0.0,1.0,100,0.01,,,0.04,0.0,meteohub,2013-07-05 08:22:00,
2013-07-05 04:27:00,64.4,64.4,30.10,ESE,122,0.0,1.0,100,0.01,,,0.04,0.0,meteohub,2013-07-05 08:27:00,
2013-07-05 04:32:00,64.4,64.4,30.10,ESE,122,0.0,1.0,100,0.01,,,0.04,0.0,meteohub,2013-07-05 08:32:00,
2013-07-05 04:37:00,64.4,64.4,30.10,ESE,122,0.0,1.0,100,0.00,,,0.04,0.0,meteohub,2013-07-05 08:37:00,
2013-07-05 04:42:00,64.4,64.4,30.10,ESE,122,0.0,1.0,100,0.00,,,0.04,0.0,meteohub,2013-07-05 08:42:00,
2013-07-05 04:47:00,64.4,64.4,30.09,ESE,122,0.0,0.0,100,0.00,,,0.04,0.0,meteohub,2013-07-05 08:47:00,
2013-07-05 04:52:00,64.4,64.4,30.10,ESE,122,0.0,0.0,100,0.00,,,0.04,0.0,meteohub,2013-07-05 08:52:00,
2013-07-05 04:57:00,64.4,64.4,30.10,ESE,122,0.0,0.0,100,0.00,,,0.04,0.0,meteohub,2013-07-05 08:57:00,
2013-07-05 05:02:00,64.4,64.4,30.09,ESE,122,0.0,0.0,100,0.00,,,0.04,0.0,meteohub,2013-07-05 09:02:00,
2013-07-05 05:07:00,64.4,64.4,30.09,ESE,122,0.0,0.0,100,0.00,,,0.04,0.0,meteohub,2013-07-05 09:07:00,
2013-07-05 05:14:00,64.6,64.6,30.09,South,184,0.0,0.0,100,0.00,,,0.04,0.0,meteohub,2013-07-05 09:14:00,
2013-07-05 05:20:00,64.6,64.6,30.09,NE,40,0.0,2.0,100,0.00,,,0.04,0.0,meteohub,2013-07-05 09:20:00,
2013-07-05 05:26:00,64.6,64.6,30.09,NE,40,0.0,2.0,100,0.00,,,0.04,0.0,meteohub,2013-07-05 09:26:00,
2013-07-05 05:32:00,64.8,64.8,30.09,NE,40,0.0,2.0,100,0.00,,,0.04,0.0,meteohub,2013-07-05 09:32:00,
2013-07-05 05:39:00,64.8,64.8,30.09,NE,40,0.0,0.0,100,0.00,,,0.04,0.0,meteohub,2013-07-05 09:39:00,
2013-07-05 05:45:00,64.8,64.8,30.10,NE,40,0.0,1.0,100,0.00,,,0.04,0.0,meteohub,2013-07-05 09:45:00,
2013-07-05 05:51:00,64.8,64.8,30.10,NE,40,0.0,1.0,100,0.00,,,0.04,0.0,meteohub,2013-07-05 09:51:00,
2013-07-05 05:57:00,64.8,64.8,30.10,NE,40,0.0,0.0,100,0.00,,,0.04,0.0,meteohub,2013-07-05 09:57:00,
2013-07-05 06:02:00,64.6,64.6,30.10,NE,40,0.0,0.0,100,0.00,,,0.04,0.0,meteohub,2013-07-05 10:02:00,
2013-07-05 06:07:00,64.6,64.6,30.10,NE,40,0.0,1.0,100,0.00,,,0.04,0.0,meteohub,2013-07-05 10:07:00,
2013-07-05 06:12:00,64.6,64.6,30.10,NE,40,0.0,1.0,100,0.00,,,0.04,0.0,meteohub,2013-07-05 10:12:00,
2013-07-05 06:17:00,64.6,64.6,30.10,NE,40,0.0,1.0,100,0.00,,,0.04,0.0,meteohub,2013-07-05 10:17:00,
2013-07-05 06:22:00,64.6,64.6,30.10,NE,40,0.0,0.0,100,0.00,,,0.04,0.0,meteohub,2013-07-05 10:22:00,
2013-07-05 06:27:00,64.6,64.6,30.10,NE,40,0.0,0.0,100,0.00,,,0.04,0.0,meteohub,2013-07-05 10:27:00,
2013-07-05 06:32:00,64.6,64.6,30.11,NE,40,0.0,0.0,100,0.00,,,0.04,0.0,meteohub,2013-07-05 10:32:00,
2013-07-05 06:37:00,64.8,64.8,30.11,NE,40,0.0,0.0,100,0.00,,,0.04,5.0,meteohub,2013-07-05 10:37:00,
2013-07-05 06:42:00,64.8,64.8,30.11,ESE,107,0.0,0.0,100,0.00,,,0.04,0.0,meteohub,2013-07-05 10:42:00,
2013-07-05 06:47:00,64.8,64.8,30.12,ESE,107,0.0,1.0,100,0.00,,,0.04,5.0,meteohub,2013-07-05 10:47:00,
2013-07-05 06:53:00,64.9,64.9,30.12,East,98,0.0,1.0,100,0.00,,,0.04,0.0,meteohub,2013-07-05 10:53:00,
2013-07-05 06:59:00,64.9,64.9,30.12,East,98,0.0,2.0,100,0.00,,,0.04,5.0,meteohub,2013-07-05 10:59:00,
2013-07-05 07:05:00,64.9,64.9,30.12,East,98,0.0,1.0,100,0.00,,,0.04,7.0,meteohub,2013-07-05 11:05:00,
2013-07-05 07:12:00,64.9,64.9,30.13,East,98,0.0,1.0,100,0.00,,,0.04,11.0,meteohub,2013-07-05 11:12:00,
2013-07-05 07:18:00,64.8,64.8,30.13,East,98,0.0,1.0,100,0.00,,,0.04,19.0,meteohub,2013-07-05 11:18:00,
2013-07-05 07:24:00,64.8,64.8,30.13,East,98,0.0,0.0,100,0.01,,,0.05,53.0,meteohub,2013-07-05 11:24:00,
2013-07-05 07:30:00,64.9,64.9,30.13,East,98,0.0,0.0,100,0.02,,,0.06,63.0,meteohub,2013-07-05 11:30:00,
2013-07-05 07:37:00,64.9,64.9,30.13,East,98,0.0,0.0,100,0.02,,,0.06,53.0,meteohub,2013-07-05 11:37:00,
2013-07-05 07:42:00,64.9,64.9,30.13,East,98,0.0,0.0,100,0.02,,,0.06,53.0,meteohub,2013-07-05 11:42:00,
2013-07-05 07:47:00,65.1,65.1,30.13,East,98,0.0,1.0,100,0.02,,,0.06,72.0,meteohub,2013-07-05 11:47:00,
2013-07-05 07:55:00,65.1,65.1,30.13,East,98,0.0,1.0,100,0.02,,,0.06,58.0,meteohub,2013-07-05 11:55:00,
2013-07-05 08:01:00,65.3,65.3,30.13,East,98,0.0,1.0,100,0.02,,,0.06,74.0,meteohub,2013-07-05 12:01:00,
2013-07-05 08:07:00,65.5,65.5,30.13,East,98,0.0,1.0,100,0.02,,,0.06,51.0,meteohub,2013-07-05 12:07:00,
2013-07-05 08:12:00,65.5,65.5,30.13,East,98,0.0,1.0,100,0.02,,,0.06,42.0,meteohub,2013-07-05 12:12:00,
2013-07-05 08:17:00,65.5,65.5,30.14,East,98,0.0,1.0,100,0.01,,,0.06,56.0,meteohub,2013-07-05 12:17:00,
2013-07-05 08:22:00,65.5,65.5,30.14,East,98,0.0,1.0,100,0.01,,,0.06,65.0,meteohub,2013-07-05 12:22:00,
2013-07-05 08:29:00,65.5,65.5,30.14,East,98,0.0,1.0,100,0.01,,,0.06,111.0,meteohub,2013-07-05 12:29:00,
2013-07-05 08:35:00,65.7,65.7,30.14,East,98,0.0,1.0,100,0.00,,,0.06,81.0,meteohub,2013-07-05 12:35:00,
2013-07-05 08:41:00,65.7,65.7,30.14,East,98,0.0,1.0,100,0.00,,,0.06,33.0,meteohub,2013-07-05 12:41:00,
2013-07-05 08:47:00,65.7,65.7,30.14,East,98,0.0,1.0,100,0.00,,,0.06,21.0,meteohub,2013-07-05 12:47:00,
2013-07-05 08:52:00,65.5,65.5,30.15,East,98,0.0,1.0,100,0.00,,,0.06,39.0,meteohub,2013-07-05 12:52:00,
2013-07-05 08:57:00,65.5,65.5,30.15,East,98,0.0,1.0,100,0.00,,,0.06,28.0,meteohub,2013-07-05 12:57:00,
2013-07-05 09:02:00,65.5,65.5,30.15,East,98,0.0,1.0,100,0.00,,,0.06,33.0,meteohub,2013-07-05 13:02:00,
2013-07-05 09:07:00,65.5,65.5,30.15,East,98,0.0,1.0,100,0.00,,,0.06,60.0,meteohub,2013-07-05 13:07:00,
2013-07-05 09:12:00,65.5,65.5,30.15,East,98,0.0,1.0,100,0.00,,,0.06,51.0,meteohub,2013-07-05 13:12:00,
2013-07-05 09:17:00,65.5,65.5,30.15,East,92,0.0,1.0,100,0.00,,,0.06,49.0,meteohub,2013-07-05 13:17:00,
2013-07-05 09:22:00,65.3,65.3,30.15,NNW,344,0.0,1.0,100,0.00,,,0.06,58.0,meteohub,2013-07-05 13:22:00,
2013-07-05 09:27:00,65.1,65.1,30.16,NNW,344,0.0,2.0,100,0.00,,,0.06,40.0,meteohub,2013-07-05 13:27:00,
2013-07-05 09:32:00,65.1,65.1,30.15,NNW,344,0.0,2.0,100,0.00,,,0.06,67.0,meteohub,2013-07-05 13:32:00,
2013-07-05 09:37:00,65.1,65.1,30.15,NNW,344,0.0,2.0,100,0.00,,,0.06,120.0,meteohub,2013-07-05 13:37:00,
2013-07-05 09:42:00,65.1,65.1,30.15,NNW,344,0.0,0.0,100,0.00,,,0.06,204.0,meteohub,2013-07-05 13:42:00,
2013-07-05 09:47:00,65.7,65.7,30.15,NNW,344,0.0,0.0,100,0.00,,,0.06,206.0,meteohub,2013-07-05 13:47:00,
2013-07-05 09:52:00,66.0,66.0,30.15,NNW,345,0.0,1.0,100,0.00,,,0.06,295.0,meteohub,2013-07-05 13:52:00,
2013-07-05 09:57:00,66.4,66.4,30.15,NNW,345,0.0,1.0,100,0.00,,,0.06,297.0,meteohub,2013-07-05 13:57:00,
2013-07-05 10:05:00,67.1,67.1,30.15,NNW,345,0.0,1.0,100,0.00,,,0.06,276.0,meteohub,2013-07-05 14:05:00,
2013-07-05 10:11:00,67.3,67.3,30.15,NNW,345,0.0,1.0,100,0.00,,,0.06,237.0,meteohub,2013-07-05 14:11:00,
2013-07-05 10:17:00,67.3,67.3,30.15,NNW,345,0.0,1.0,100,0.00,,,0.06,221.0,meteohub,2013-07-05 14:17:00,
2013-07-05 10:22:00,67.5,67.5,30.15,NNW,345,0.0,1.0,100,0.00,,,0.06,272.0,meteohub,2013-07-05 14:22:00,
2013-07-05 10:29:00,67.3,67.3,30.15,North,355,0.0,1.0,100,0.00,,,0.06,220.0,meteohub,2013-07-05 14:29:00,
2013-07-05 10:35:00,67.5,67.5,30.16,North,355,0.0,1.0,100,0.00,,,0.06,163.0,meteohub,2013-07-05 14:35:00,
2013-07-05 10:42:00,67.6,67.6,30.16,North,355,0.0,1.0,100,0.00,,,0.06,185.0,meteohub,2013-07-05 14:42:00,
2013-07-05 10:47:00,67.6,67.6,30.16,North,355,0.0,1.0,100,0.00,,,0.06,211.0,meteohub,2013-07-05 14:47:00,
2013-07-05 10:52:00,67.6,67.6,30.16,North,355,0.0,1.0,100,0.00,,,0.06,318.0,meteohub,2013-07-05 14:52:00,
2013-07-05 10:57:00,68.2,68.2,30.16,North,355,0.0,1.0,100,0.00,,,0.06,385.0,meteohub,2013-07-05 14:57:00,
2013-07-05 11:02:00,68.2,68.2,30.16,North,355,0.0,1.0,100,0.00,,,0.06,311.0,meteohub,2013-07-05 15:02:00,
2013-07-05 11:09:00,68.2,68.2,30.16,North,355,0.0,1.0,100,0.00,,,0.06,225.0,meteohub,2013-07-05 15:09:00,
2013-07-05 11:15:00,68.4,68.4,30.16,North,355,0.0,1.0,100,0.00,,,0.06,253.0,meteohub,2013-07-05 15:15:00,
2013-07-05 11:21:00,68.5,68.5,30.17,NNE,12,0.0,1.0,100,0.00,,,0.06,230.0,meteohub,2013-07-05 15:21:00,
2013-07-05 11:27:00,68.4,68.4,30.17,NNE,12,0.0,1.0,100,0.00,,,0.06,225.0,meteohub,2013-07-05 15:27:00,
2013-07-05 11:32:00,68.2,68.2,30.17,NNE,12,0.0,1.0,100,0.00,,,0.06,237.0,meteohub,2013-07-05 15:32:00,
2013-07-05 11:37:00,68.0,68.0,30.17,NNE,12,0.0,1.0,100,0.00,,,0.06,141.0,meteohub,2013-07-05 15:37:00,
2013-07-05 11:42:00,67.6,67.6,30.17,NNE,12,0.0,1.0,100,0.00,,,0.06,248.0,meteohub,2013-07-05 15:42:00,
2013-07-05 11:48:00,67.3,67.3,30.16,East,101,1.0,1.0,100,0.00,,,0.06,327.0,meteohub,2013-07-05 15:48:00,
2013-07-05 11:54:00,67.6,67.6,30.16,East,100,0.0,2.0,100,0.00,,,0.06,406.0,meteohub,2013-07-05 15:54:00,
2013-07-05 12:00:00,68.0,68.0,30.16,East,99,0.0,2.0,100,0.00,,,0.06,663.0,meteohub,2013-07-05 16:00:00,
2013-07-05 12:06:00,68.9,68.9,30.17,East,100,0.0,2.0,100,0.00,,,0.06,1060.0,meteohub,2013-07-05 16:06:00,
2013-07-05 12:12:00,69.4,69.1,30.16,ENE,78,0.0,2.0,99,0.00,,,0.06,1055.0,meteohub,2013-07-05 16:12:00,
2013-07-05 12:17:00,70.3,70.0,30.16,East,97,0.0,1.0,99,0.00,,,0.06,679.0,meteohub,2013-07-05 16:17:00,
2013-07-05 12:22:00,70.9,69.6,30.16,East,97,0.0,1.0,96,0.00,,,0.06,318.0,meteohub,2013-07-05 16:22:00,
2013-07-05 12:27:00,70.9,69.1,30.16,East,97,0.0,1.0,94,0.00,,,0.06,448.0,meteohub,2013-07-05 16:27:00,
2013-07-05 12:32:00,70.9,69.1,30.16,East,97,0.0,1.0,94,0.00,,,0.06,325.0,meteohub,2013-07-05 16:32:00,
2013-07-05 12:37:00,70.9,68.4,30.16,East,97,0.0,2.0,92,0.00,,,0.06,339.0,meteohub,2013-07-05 16:37:00,
2013-07-05 12:42:00,71.1,69.6,30.16,East,97,0.0,2.0,95,0.00,,,0.06,962.0,meteohub,2013-07-05 16:42:00,
2013-07-05 12:47:00,71.6,69.8,30.16,ESE,102,0.0,2.0,94,0.00,,,0.06,466.0,meteohub,2013-07-05 16:47:00,
2013-07-05 12:52:00,71.8,69.6,30.16,ESE,102,0.0,2.0,93,0.00,,,0.06,541.0,meteohub,2013-07-05 16:52:00,
2013-07-05 12:57:00,72.1,69.6,30.16,East,101,0.0,2.0,92,0.00,,,0.06,554.0,meteohub,2013-07-05 16:57:00,
2013-07-05 13:02:00,72.7,70.9,30.15,East,93,0.0,1.0,94,0.00,,,0.06,554.0,meteohub,2013-07-05 17:02:00,
2013-07-05 13:07:00,73.2,70.7,30.15,East,93,0.0,2.0,92,0.00,,,0.06,930.0,meteohub,2013-07-05 17:07:00,
2013-07-05 13:12:00,73.8,70.9,30.15,ESE,109,1.0,2.0,91,0.00,,,0.06,1046.0,meteohub,2013-07-05 17:12:00,
2013-07-05 13:17:00,74.3,71.2,30.15,East,89,1.0,4.0,90,0.00,,,0.06,1055.0,meteohub,2013-07-05 17:17:00,
2013-07-05 13:22:00,74.5,70.7,30.14,ESE,102,0.0,4.0,88,0.00,,,0.06,995.0,meteohub,2013-07-05 17:22:00,
2013-07-05 13:27:00,74.8,70.7,30.14,SE,130,0.0,4.0,87,0.00,,,0.06,1042.0,meteohub,2013-07-05 17:27:00,
2013-07-05 13:32:00,75.2,71.4,30.14,ESE,117,0.0,2.0,88,0.00,,,0.06,1095.0,meteohub,2013-07-05 17:32:00,
2013-07-05 13:37:00,75.7,72.3,30.14,SSE,155,0.0,2.0,89,0.00,,,0.06,1179.0,meteohub,2013-07-05 17:37:00,
2013-07-05 13:42:00,75.9,71.8,30.14,East,79,0.0,2.0,87,0.00,,,0.06,1025.0,meteohub,2013-07-05 17:42:00,
2013-07-05 13:47:00,75.7,70.5,30.14,SE,135,0.0,2.0,84,0.00,,,0.06,265.0,meteohub,2013-07-05 17:47:00,
2013-07-05 13:52:00,75.6,70.3,30.14,SE,135,0.0,2.0,84,0.00,,,0.06,320.0,meteohub,2013-07-05 17:52:00,
2013-07-05 13:57:00,75.7,72.0,30.14,ESE,107,0.0,2.0,88,0.00,,,0.06,1139.0,meteohub,2013-07-05 17:57:00,
2013-07-05 14:04:00,76.6,71.8,30.13,ESE,113,0.0,4.0,85,0.00,,,0.06,1197.0,meteohub,2013-07-05 18:04:00,
2013-07-05 14:10:00,77.2,70.9,30.13,ESE,106,0.0,4.0,81,0.00,,,0.06,1032.0,meteohub,2013-07-05 18:10:00,
2013-07-05 14:16:00,77.4,71.4,30.13,SE,124,1.0,2.0,82,0.00,,,0.06,1130.0,meteohub,2013-07-05 18:16:00,
2013-07-05 14:22:00,77.4,70.7,30.13,ESE,119,0.0,2.0,80,0.00,,,0.06,1155.0,meteohub,2013-07-05 18:22:00,
2013-07-05 14:27:00,77.2,71.2,30.13,ESE,119,0.0,4.0,82,0.00,,,0.06,1155.0,meteohub,2013-07-05 18:27:00,
2013-07-05 14:32:00,77.0,70.7,30.13,SSE,159,1.0,4.0,81,0.00,,,0.06,1071.0,meteohub,2013-07-05 18:32:00,
2013-07-05 14:37:00,77.0,71.4,30.13,ESE,118,1.0,2.0,83,0.00,,,0.06,1113.0,meteohub,2013-07-05 18:37:00,
2013-07-05 14:42:00,77.4,70.7,30.12,ESE,111,0.0,2.0,80,0.00,,,0.06,183.0,meteohub,2013-07-05 18:42:00,
2013-07-05 14:47:00,77.0,70.7,30.12,ESE,111,0.0,2.0,81,0.00,,,0.06,183.0,meteohub,2013-07-05 18:47:00,
2013-07-05 14:52:00,77.0,71.1,30.12,ESE,121,0.0,2.0,82,0.00,,,0.06,1053.0,meteohub,2013-07-05 18:52:00,
2013-07-05 14:57:00,77.4,72.1,30.12,ESE,111,0.0,2.0,84,0.00,,,0.06,701.0,meteohub,2013-07-05 18:57:00,
2013-07-05 15:02:00,77.0,70.3,30.12,ESE,105,0.0,2.0,80,0.00,,,0.06,504.0,meteohub,2013-07-05 19:02:00,
2013-07-05 15:07:00,76.6,70.3,30.12,ESE,105,0.0,2.0,81,0.00,,,0.06,243.0,meteohub,2013-07-05 19:07:00,
2013-07-05 15:12:00,76.1,70.2,30.12,North,5,1.0,2.0,82,0.00,,,0.06,336.0,meteohub,2013-07-05 19:12:00,
2013-07-05 15:17:00,76.3,70.0,30.11,North,5,0.0,2.0,81,0.00,,,0.06,942.0,meteohub,2013-07-05 19:17:00,
2013-07-05 15:22:00,76.5,71.2,30.11,East,95,0.0,2.0,84,0.00,,,0.06,673.0,meteohub,2013-07-05 19:22:00,
2013-07-05 15:27:00,76.6,71.4,30.11,East,92,0.0,2.0,84,0.00,,,0.06,981.0,meteohub,2013-07-05 19:27:00,
2013-07-05 15:32:00,76.8,69.8,30.11,East,85,0.0,2.0,79,0.00,,,0.06,898.0,meteohub,2013-07-05 19:32:00,
2013-07-05 15:34:00,77.2,71.6,30.11,East,93,1.0,2.0,83,0.00,,,0.06,891.0,meteohub,2013-07-05 19:34:00,
2013-07-05 15:40:00,77.0,70.7,30.11,East,91,0.0,4.0,81,0.00,,,0.06,877.0,meteohub,2013-07-05 19:40:00,
2013-07-05 15:46:00,77.2,70.5,30.11,East,94,0.0,4.0,80,0.00,,,0.06,745.0,meteohub,2013-07-05 19:46:00,
2013-07-05 15:52:00,77.5,70.2,30.10,South,178,0.0,2.0,78,0.00,,,0.06,896.0,meteohub,2013-07-05 19:52:00,
2013-07-05 15:59:00,77.5,68.9,30.10,East,88,0.0,2.0,75,0.00,,,0.06,849.0,meteohub,2013-07-05 19:59:00,
2013-07-05 16:05:00,77.4,69.3,30.10,East,84,0.0,2.0,76,0.00,,,0.06,882.0,meteohub,2013-07-05 20:05:00,
2013-07-05 16:11:00,77.4,69.3,30.10,ESE,114,0.0,2.0,76,0.00,,,0.06,889.0,meteohub,2013-07-05 20:11:00,
2013-07-05 16:17:00,77.4,69.6,30.09,ESE,111,0.0,2.0,77,0.00,,,0.06,803.0,meteohub,2013-07-05 20:17:00,
2013-07-05 16:22:00,77.7,70.7,30.10,ESE,111,0.0,2.0,79,0.00,,,0.06,798.0,meteohub,2013-07-05 20:22:00,
2013-07-05 16:27:00,77.7,69.6,30.10,ESE,111,0.0,1.0,76,0.00,,,0.06,842.0,meteohub,2013-07-05 20:27:00,
2013-07-05 16:32:00,78.1,69.4,30.10,ESE,111,0.0,1.0,75,0.00,,,0.06,784.0,meteohub,2013-07-05 20:32:00,
2013-07-05 16:37:00,78.3,69.3,30.10,ESE,110,0.0,1.0,74,0.00,,,0.06,809.0,meteohub,2013-07-05 20:37:00,
2013-07-05 16:42:00,78.4,70.7,30.11,ESE,110,1.0,2.0,77,0.00,,,0.06,802.0,meteohub,2013-07-05 20:42:00,
2013-07-05 16:47:00,78.3,70.0,30.11,ESE,110,0.0,2.0,76,0.00,,,0.06,846.0,meteohub,2013-07-05 20:47:00,
2013-07-05 16:52:00,78.1,70.0,30.11,ESE,110,1.0,1.0,76,0.00,,,0.06,846.0,meteohub,2013-07-05 20:52:00,
2013-07-05 16:57:00,78.1,71.4,30.12,ESE,104,6.0,6.0,80,0.00,,,0.06,294.0,meteohub,2013-07-05 20:57:00,
2013-07-05 17:02:00,75.9,68.5,30.12,East,90,2.0,6.0,78,0.00,,,0.06,19.0,meteohub,2013-07-05 21:02:00,
2013-07-05 17:08:00,72.3,67.3,30.13,SE,142,2.0,7.0,84,0.00,,,0.06,5.0,meteohub,2013-07-05 21:08:00,
2013-07-05 17:14:00,69.8,66.4,30.13,SE,138,0.0,7.0,89,0.00,,,0.06,5.0,meteohub,2013-07-05 21:14:00,
2013-07-05 17:22:00,68.2,65.8,30.13,ESE,109,0.0,7.0,92,0.33,,,0.39,5.0,meteohub,2013-07-05 21:22:00,
2013-07-05 17:27:00,67.5,65.7,30.13,ESE,109,0.0,5.0,94,0.34,,,0.40,5.0,meteohub,2013-07-05 21:27:00,
2013-07-05 17:32:00,67.1,65.7,30.13,ESE,109,0.0,4.0,95,0.38,,,0.44,11.0,meteohub,2013-07-05 21:32:00,
2013-07-05 17:37:00,66.7,65.3,30.13,ESE,109,0.0,0.0,95,0.38,,,0.44,14.0,meteohub,2013-07-05 21:37:00,
2013-07-05 17:42:00,66.6,65.1,30.12,ESE,109,0.0,1.0,95,0.38,,,0.44,23.0,meteohub,2013-07-05 21:42:00,
2013-07-05 17:47:00,66.4,65.1,30.12,ESE,109,0.0,1.0,96,0.39,,,0.45,32.0,meteohub,2013-07-05 21:47:00,
2013-07-05 17:52:00,66.0,64.8,30.12,ESE,109,0.0,1.0,96,0.39,,,0.45,35.0,meteohub,2013-07-05 21:52:00,
2013-07-05 17:57:00,65.8,64.6,30.12,ESE,109,0.0,0.0,96,0.39,,,0.45,33.0,meteohub,2013-07-05 21:57:00,
2013-07-05 18:02:00,65.8,64.6,30.12,ESE,109,0.0,0.0,96,0.39,,,0.45,28.0,meteohub,2013-07-05 22:02:00,
2013-07-05 18:07:00,65.8,64.9,30.12,ESE,109,0.0,0.0,97,0.39,,,0.45,23.0,meteohub,2013-07-05 22:07:00,
2013-07-05 18:12:00,65.8,64.9,30.12,ESE,109,0.0,0.0,97,0.37,,,0.45,26.0,meteohub,2013-07-05 22:12:00,
2013-07-05 18:17:00,66.0,65.5,30.11,ESE,109,0.0,0.0,98,0.17,,,0.46,44.0,meteohub,2013-07-05 22:17:00,
2013-07-05 18:22:00,66.0,65.5,30.11,ESE,109,0.0,0.0,98,0.06,,,0.46,70.0,meteohub,2013-07-05 22:22:00,
2013-07-05 18:27:00,66.6,66.0,30.11,ESE,109,0.0,0.0,98,0.05,,,0.47,114.0,meteohub,2013-07-05 22:27:00,
2013-07-05 18:32:00,66.7,66.2,30.11,ESE,109,0.0,0.0,98,0.04,,,0.48,151.0,meteohub,2013-07-05 22:32:00,
2013-07-05 18:37:00,66.9,66.6,30.11,ESE,109,0.0,0.0,99,0.04,,,0.48,149.0,meteohub,2013-07-05 22:37:00,
2013-07-05 18:42:00,67.1,66.6,30.11,ESE,109,0.0,0.0,98,0.03,,,0.48,158.0,meteohub,2013-07-05 22:42:00,
2013-07-05 18:47:00,67.3,66.7,30.11,ESE,109,0.0,0.0,98,0.03,,,0.48,118.0,meteohub,2013-07-05 22:47:00,
2013-07-05 18:52:00,67.5,66.9,30.11,East,91,0.0,1.0,98,0.03,,,0.48,113.0,meteohub,2013-07-05 22:52:00,
2013-07-05 18:57:00,67.6,67.3,30.11,East,92,0.0,2.0,99,0.03,,,0.48,72.0,meteohub,2013-07-05 22:57:00,
2013-07-05 19:02:00,67.8,67.5,30.12,East,92,0.0,2.0,99,0.03,,,0.48,86.0,meteohub,2013-07-05 23:02:00,
2013-07-05 19:07:00,68.0,67.6,30.11,East,92,0.0,1.0,99,0.03,,,0.48,79.0,meteohub,2013-07-05 23:07:00,
2013-07-05 19:12:00,68.0,67.5,30.11,East,92,0.0,1.0,98,0.02,,,0.48,79.0,meteohub,2013-07-05 23:12:00,
2013-07-05 19:17:00,68.2,67.6,30.12,East,92,0.0,1.0,98,0.02,,,0.48,69.0,meteohub,2013-07-05 23:17:00,
2013-07-05 19:22:00,68.2,67.6,30.12,East,92,0.0,1.0,98,0.01,,,0.48,63.0,meteohub,2013-07-05 23:22:00,
2013-07-05 19:27:00,68.2,67.6,30.12,East,92,0.0,1.0,98,0.01,,,0.48,63.0,meteohub,2013-07-05 23:27:00,
2013-07-05 19:32:00,68.0,67.5,30.12,East,92,0.0,1.0,98,0.00,,,0.48,54.0,meteohub,2013-07-05 23:32:00,
2013-07-05 19:37:00,67.8,67.3,30.12,East,92,0.0,1.0,98,0.00,,,0.48,49.0,meteohub,2013-07-05 23:37:00,
2013-07-05 19:42:00,68.0,67.5,30.12,East,92,0.0,0.0,98,0.00,,,0.48,53.0,meteohub,2013-07-05 23:42:00,
2013-07-05 19:47:00,68.0,67.5,30.12,East,92,0.0,0.0,98,0.00,,,0.48,46.0,meteohub,2013-07-05 23:47:00,
2013-07-05 19:52:00,68.0,67.5,30.12,East,92,0.0,0.0,98,0.00,,,0.48,42.0,meteohub,2013-07-05 23:52:00,
2013-07-05 19:57:00,68.0,67.5,30.12,East,92,0.0,0.0,98,0.00,,,0.48,28.0,meteohub,2013-07-05 23:57:00,
2013-07-05 20:02:00,67.8,67.3,30.12,East,92,0.0,0.0,98,0.00,,,0.48,19.0,meteohub,2013-07-06 00:02:00,
2013-07-05 20:07:00,67.8,67.3,30.12,East,92,0.0,0.0,98,0.00,,,0.48,16.0,meteohub,2013-07-06 00:07:00,
2013-07-05 20:12:00,68.0,67.5,30.12,East,92,0.0,0.0,98,0.00,,,0.48,12.0,meteohub,2013-07-06 00:12:00,
2013-07-05 20:17:00,68.0,67.5,30.12,East,92,0.0,0.0,98,0.00,,,0.48,11.0,meteohub,2013-07-06 00:17:00,
2013-07-05 20:22:00,67.8,67.3,30.12,East,92,0.0,0.0,98,0.00,,,0.48,9.0,meteohub,2013-07-06 00:22:00,
2013-07-05 20:27:00,67.8,67.3,30.12,East,92,0.0,0.0,98,0.00,,,0.48,7.0,meteohub,2013-07-06 00:27:00,
2013-07-05 20:32:00,67.8,67.3,30.12,East,92,0.0,0.0,98,0.00,,,0.48,7.0,meteohub,2013-07-06 00:32:00,
2013-07-05 20:37:00,67.8,67.3,30.12,East,92,0.0,0.0,98,0.00,,,0.48,5.0,meteohub,2013-07-06 00:37:00,
2013-07-05 20:42:00,67.6,67.1,30.12,East,92,0.0,0.0,98,0.00,,,0.48,0.0,meteohub,2013-07-06 00:42:00,
2013-07-05 20:47:00,67.6,67.1,30.12,East,92,0.0,0.0,98,0.00,,,0.48,0.0,meteohub,2013-07-06 00:47:00,
2013-07-05 20:52:00,67.6,67.1,30.12,East,92,0.0,0.0,98,0.00,,,0.48,0.0,meteohub,2013-07-06 00:52:00,
2013-07-05 20:57:00,67.5,66.9,30.12,East,92,0.0,0.0,98,0.00,,,0.48,0.0,meteohub,2013-07-06 00:57:00,
2013-07-05 21:03:00,67.3,66.7,30.12,East,92,0.0,0.0,98,0.00,,,0.48,0.0,meteohub,2013-07-06 01:03:00,
2013-07-05 21:09:00,67.5,66.9,30.12,East,92,0.0,0.0,98,0.00,,,0.48,0.0,meteohub,2013-07-06 01:09:00,
2013-07-05 21:15:00,67.3,66.7,30.12,East,92,0.0,0.0,98,0.00,,,0.48,0.0,meteohub,2013-07-06 01:15:00,
2013-07-05 21:21:00,67.3,66.7,30.12,East,92,0.0,0.0,98,0.00,,,0.48,0.0,meteohub,2013-07-06 01:21:00,
2013-07-05 21:27:00,67.3,66.9,30.12,East,92,0.0,0.0,99,0.00,,,0.48,0.0,meteohub,2013-07-06 01:27:00,
2013-07-05 21:32:00,67.3,66.9,30.12,East,92,0.0,1.0,99,0.00,,,0.48,0.0,meteohub,2013-07-06 01:32:00,
2013-07-05 21:37:00,67.3,66.9,30.12,East,92,0.0,1.0,99,0.00,,,0.48,0.0,meteohub,2013-07-06 01:37:00,
2013-07-05 21:42:00,67.3,66.9,30.13,East,92,0.0,1.0,99,0.00,,,0.48,0.0,meteohub,2013-07-06 01:42:00,
2013-07-05 21:47:00,67.3,66.9,30.13,East,80,0.0,1.0,99,0.00,,,0.48,0.0,meteohub,2013-07-06 01:47:00,
2013-07-05 21:52:00,67.1,66.7,30.13,East,80,0.0,1.0,99,0.00,,,0.48,0.0,meteohub,2013-07-06 01:52:00,
2013-07-05 21:57:00,67.1,66.7,30.13,East,80,0.0,1.0,99,0.00,,,0.48,0.0,meteohub,2013-07-06 01:57:00,
2013-07-05 22:02:00,66.9,66.6,30.13,East,85,0.0,1.0,99,0.00,,,0.48,0.0,meteohub,2013-07-06 02:02:00,
2013-07-05 22:07:00,66.9,66.6,30.13,ESE,118,0.0,2.0,99,0.00,,,0.48,0.0,meteohub,2013-07-06 02:07:00,
2013-07-05 22:12:00,66.9,66.6,30.14,SE,138,2.0,2.0,99,0.00,,,0.48,0.0,meteohub,2013-07-06 02:12:00,
2013-07-05 22:17:00,66.7,66.4,30.13,ESE,106,0.0,2.0,99,0.00,,,0.48,0.0,meteohub,2013-07-06 02:17:00,
2013-07-05 22:22:00,66.7,66.4,30.13,ESE,106,0.0,2.0,99,0.00,,,0.48,0.0,meteohub,2013-07-06 02:22:00,
2013-07-05 22:27:00,66.7,66.4,30.13,SSE,160,1.0,2.0,99,0.00,,,0.48,0.0,meteohub,2013-07-06 02:27:00,
2013-07-05 22:32:00,66.7,66.4,30.13,ESE,122,1.0,4.0,99,0.00,,,0.48,0.0,meteohub,2013-07-06 02:32:00,
2013-07-05 22:37:00,66.9,66.6,30.13,East,101,0.0,4.0,99,0.01,,,0.49,0.0,meteohub,2013-07-06 02:37:00,
2013-07-05 22:42:00,66.9,66.6,30.13,SSE,151,4.0,4.0,99,0.01,,,0.49,0.0,meteohub,2013-07-06 02:42:00,
2013-07-05 22:47:00,66.9,66.6,30.13,East,101,1.0,4.0,99,0.02,,,0.50,0.0,meteohub,2013-07-06 02:47:00,
2013-07-05 22:52:00,67.1,66.7,30.13,SE,127,0.0,4.0,99,0.03,,,0.51,0.0,meteohub,2013-07-06 02:52:00,
2013-07-05 22:57:00,67.1,66.7,30.13,SE,127,0.0,4.0,99,0.03,,,0.51,0.0,meteohub,2013-07-06 02:57:00,
2013-07-05 23:02:00,66.9,66.6,30.13,ESE,106,0.0,4.0,99,0.03,,,0.51,0.0,meteohub,2013-07-06 03:02:00,
2013-07-05 23:07:00,66.9,66.6,30.13,SE,138,0.0,4.0,99,0.03,,,0.51,0.0,meteohub,2013-07-06 03:07:00,
2013-07-05 23:12:00,66.9,66.6,30.13,SE,127,0.0,4.0,99,0.03,,,0.51,0.0,meteohub,2013-07-06 03:12:00,
2013-07-05 23:17:00,66.9,66.6,30.13,SE,128,0.0,4.0,99,0.03,,,0.51,0.0,meteohub,2013-07-06 03:17:00,
2013-07-05 23:22:00,67.1,66.7,30.12,East,83,0.0,2.0,99,0.03,,,0.51,0.0,meteohub,2013-07-06 03:22:00,
2013-07-05 23:27:00,67.3,66.9,30.12,SE,136,0.0,4.0,99,0.03,,,0.51,0.0,meteohub,2013-07-06 03:27:00,
2013-07-05 23:32:00,67.3,66.9,30.12,ESE,113,0.0,4.0,99,0.03,,,0.51,0.0,meteohub,2013-07-06 03:32:00,
2013-07-05 23:37:00,67.3,66.9,30.13,ESE,113,0.0,4.0,99,0.02,,,0.51,0.0,meteohub,2013-07-06 03:37:00,
2013-07-05 23:42:00,67.3,66.9,30.13,SSE,150,1.0,5.0,99,0.02,,,0.51,0.0,meteohub,2013-07-06 03:42:00,
2013-07-05 23:47:00,67.3,66.9,30.12,East,98,1.0,5.0,99,0.00,,,0.51,0.0,meteohub,2013-07-06 03:47:00,
2013-07-05 23:52:00,67.1,66.7,30.12,SSE,166,5.0,5.0,99,0.00,,,0.51,0.0,meteohub,2013-07-06 03:52:00,
2013-07-05 23:57:00,67.1,66.7,30.12,SSE,148,0.0,5.0,99,0.00,,,0.51,0.0,meteohub,2013-07-06 03:57:00,